| time (UTC) | temp C | wind direction | speed KPH | gust KPH | rain 1hr cm | rain 24hr cm | rain mn cm | humidity % | barometer mb |
| 20260503072440 | 16 | 90 | 6.4 | 6.4 | 0.00 | 0.00 | 0.00 | 92 | 1020.2 |
| 20260503072239 | 16 | 68 | 6.4 | 6.4 | 0.00 | 0.00 | 0.00 | 92 | 1020.4 |
| 20260503072139 | 16 | 68 | 6.4 | 6.4 | 0.00 | 0.00 | 0.00 | 92 | 1020.4 |
| 20260503072039 | 16 | 68 | 6.4 | 6.4 | 0.00 | 0.00 | 0.00 | 93 | 1020.4 |
| 20260503071940 | 15 | 68 | 6.4 | 8.0 | 0.00 | 0.00 | 0.00 | 93 | 1020.5 |
| 20260503071840 | 16 | 68 | 6.4 | 8.0 | 0.00 | 0.00 | 0.00 | 93 | 1020.5 |
| 20260503071539 | 15 | 90 | 6.4 | 6.4 | 0.00 | 0.00 | 0.00 | 93 | 1020.5 |
| 20260503071139 | 15 | 68 | 8.0 | 9.7 | 0.00 | 0.00 | 0.00 | 92 | 1020.4 |
| 20260503071040 | 15 | 68 | 8.0 | 9.7 | 0.00 | 0.00 | 0.00 | 89 | 1020.4 |
| 20260503070940 | 15 | 68 | 6.4 | 8.0 | 0.00 | 0.00 | 0.00 | 93 | 1020.3 |
| 20260503070440 | 16 | 68 | 6.4 | 8.0 | 0.00 | 0.00 | 0.00 | 93 | 1020.6 |
| 20260503070339 | 15 | 68 | 8.0 | 9.7 | 0.00 | 0.00 | 0.00 | 92 | 1020.6 |
| 20260503070140 | 15 | 68 | 9.7 | 9.7 | 0.00 | 0.00 | 0.00 | 91 | 1020.4 |
| 20260503060239 | 15 | 90 | 11.3 | 11.3 | 0.00 | 0.00 | 0.00 | 95 | 1020.4 |
| 20260503060139 | 15 | 90 | 11.3 | 11.3 | 0.00 | 0.00 | 0.00 | 94 | 1020.2 |
| 20260503054739 | 15 | 68 | 11.3 | 12.9 | 0.00 | 0.00 | 0.00 | 95 | 1020.4 |
| 20260503054639 | 15 | 90 | 11.3 | 12.9 | 0.00 | 0.00 | 0.00 | 94 | 1020.3 |
| 20260503054539 | 15 | 68 | 11.3 | 11.3 | 0.00 | 0.00 | 0.00 | 94 | 1020.4 |
| 20260503054239 | 15 | 90 | 12.9 | 14.5 | 0.00 | 0.00 | 0.00 | 94 | 1020.3 |
| 20260503054139 | 15 | 90 | 12.9 | 14.5 | 0.00 | 0.00 | 0.00 | 95 | 1020.4 |
| 20260503053739 | 15 | 68 | 11.3 | 11.3 | 0.00 | 0.00 | 0.00 | 94 | 1020.1 |
| 20260503053639 | 15 | 68 | 11.3 | 12.9 | 0.00 | 0.00 | 0.00 | 94 | 1020.1 |
| 20260503053340 | 15 | 90 | 12.9 | 14.5 | 0.00 | 0.00 | 0.00 | 93 | 1020.2 |
| 20260503053238 | 15 | 90 | 11.3 | 14.5 | 0.00 | 0.00 | 0.00 | 94 | 1020.4 |
| 20260503052840 | 15 | 68 | 11.3 | 11.3 | 0.00 | 0.00 | 0.00 | 95 | 1020.1 |
| 20260503052739 | 15 | 68 | 11.3 | 12.9 | 0.00 | 0.00 | 0.00 | 95 | 1020.3 |
| 20260503052639 | 15 | 68 | 11.3 | 12.9 | 0.00 | 0.00 | 0.00 | 95 | 1020.5 |
| 20260503052440 | 15 | 68 | 11.3 | 12.9 | 0.00 | 0.00 | 0.00 | 94 | 1020.0 |
| 20260503052340 | 15 | 68 | 11.3 | 12.9 | 0.00 | 0.00 | 0.00 | 94 | 1020.3 |
| 20260503052240 | 15 | 68 | 11.3 | 12.9 | 0.00 | 0.00 | 0.00 | 93 | 1020.1 |
| 20260503052139 | 15 | 68 | 11.3 | 12.9 | 0.00 | 0.00 | 0.00 | 94 | 1020.4 |
| 20260503051640 | 15 | 68 | 11.3 | 11.3 | 0.00 | 0.00 | 0.00 | 94 | 1020.2 |
| 20260503051539 | 15 | 68 | 11.3 | 12.9 | 0.00 | 0.00 | 0.00 | 94 | 1020.1 |
| 20260503051340 | 15 | 68 | 11.3 | 12.9 | 0.00 | 0.00 | 0.00 | 93 | 1020.2 |
| 20260503050940 | 15 | 68 | 12.9 | 14.5 | 0.00 | 0.00 | 0.00 | 94 | 1020.3 |
| 20260503050839 | 15 | 90 | 12.9 | 14.5 | 0.00 | 0.00 | 0.00 | 94 | 1020.3 |
| 20260503050739 | 15 | 68 | 12.9 | 14.5 | 0.00 | 0.00 | 0.00 | 94 | 1020.4 |
| 20260503050639 | 15 | 68 | 11.3 | 14.5 | 0.00 | 0.00 | 0.00 | 94 | 1020.2 |
| 20260503050539 | 15 | 68 | 12.9 | 14.5 | 0.00 | 0.00 | 0.00 | 94 | 1020.2 |
| 20260503050339 | 15 | 68 | 11.3 | 14.5 | 0.00 | 0.00 | 0.00 | 93 | 1020.2 |
| 20260503045839 | 15 | 90 | 9.7 | 11.3 | 0.00 | 0.00 | 0.00 | 90 | 1020.2 |
| 20260503045739 | 15 | 68 | 11.3 | 12.9 | 0.00 | 0.00 | 0.00 | 88 | 1020.1 |
| 20260503045639 | 15 | 68 | 11.3 | 11.3 | 0.00 | 0.00 | 0.00 | 90 | 1020.3 |
| 20260503045439 | 15 | 68 | 11.3 | 14.5 | 0.00 | 0.00 | 0.00 | 91 | 1020.0 |
| 20260503045340 | 15 | 90 | 9.7 | 11.3 | 0.00 | 0.00 | 0.00 | 93 | 1020.3 |
| 20260503045239 | 15 | 68 | 11.3 | 12.9 | 0.00 | 0.00 | 0.00 | 93 | 1020.1 |
| 20260503045139 | 15 | 68 | 12.9 | 14.5 | 0.00 | 0.00 | 0.00 | 91 | 1020.1 |
| 20260503044939 | 15 | 68 | 12.9 | 14.5 | 0.00 | 0.00 | 0.00 | 93 | 1020.4 |
| 20260503044839 | 15 | 68 | 12.9 | 14.5 | 0.00 | 0.00 | 0.00 | 93 | 1020.2 |
| 20260503044440 | 15 | 68 | 9.7 | 11.3 | 0.00 | 0.00 | 0.00 | 94 | 1020.2 |
| 20260503044139 | 15 | 68 | 11.3 | 12.9 | 0.00 | 0.00 | 0.00 | 93 | 1020.4 |
| 20260503044039 | 15 | 68 | 12.9 | 14.5 | 0.00 | 0.00 | 0.00 | 92 | 1020.1 |
| 20260503043840 | 15 | 68 | 12.9 | 14.5 | 0.00 | 0.00 | 0.00 | 94 | 1019.9 |
| 20260503043639 | 14 | 90 | 11.3 | 14.5 | 0.00 | 0.00 | 0.00 | 94 | 1020.1 |
| 20260503043339 | 14 | 68 | 14.5 | 14.5 | 0.00 | 0.00 | 0.00 | 94 | 1020.2 |
| 20260503043040 | 15 | 90 | 14.5 | 16.1 | 0.00 | 0.00 | 0.00 | 94 | 1020.2 |
| 20260503042839 | 15 | 90 | 14.5 | 17.7 | 0.00 | 0.00 | 0.00 | 94 | 1020.1 |
| 20260503042739 | 15 | 90 | 14.5 | 16.1 | 0.00 | 0.00 | 0.00 | 95 | 1020.0 |
| 20260503042539 | 15 | 90 | 12.9 | 14.5 | 0.00 | 0.00 | 0.00 | 95 | 1019.9 |
| 20260503042439 | 15 | 90 | 14.5 | 16.1 | 0.00 | 0.00 | 0.00 | 94 | 1020.2 |
| 20260503042239 | 15 | 68 | 12.9 | 14.5 | 0.00 | 0.00 | 0.00 | 94 | 1020.3 |
| 20260503042039 | 15 | 90 | 12.9 | 16.1 | 0.00 | 0.00 | 0.00 | 94 | 1020.2 |
| 20260503041939 | 15 | 68 | 14.5 | 16.1 | 0.00 | 0.00 | 0.00 | 93 | 1020.2 |
| 20260503041839 | 15 | 68 | 12.9 | 14.5 | 0.00 | 0.00 | 0.00 | 94 | 1020.1 |
| 20260503041740 | 15 | 68 | 12.9 | 14.5 | 0.00 | 0.00 | 0.00 | 94 | 1020.2 |
| 20260503041540 | 15 | 68 | 12.9 | 16.1 | 0.00 | 0.00 | 0.00 | 95 | 1020.2 |
| 20260503041340 | 15 | 68 | 12.9 | 14.5 | 0.00 | 0.00 | 0.00 | 94 | 1020.0 |
| 20260503041139 | 15 | 90 | 14.5 | 17.7 | 0.00 | 0.00 | 0.00 | 94 | 1020.1 |
| 20260503040740 | 15 | 68 | 11.3 | 14.5 | 0.00 | 0.00 | 0.00 | 94 | 1020.0 |
| 20260503040539 | 15 | 90 | 11.3 | 14.5 | 0.00 | 0.00 | 0.00 | 95 | 1020.1 |
| 20260503040039 | 15 | 68 | 12.9 | 14.5 | 0.00 | 0.00 | 0.00 | 95 | 1020.1 |
| 20260503035939 | 15 | 68 | 12.9 | 14.5 | 0.00 | 0.00 | 0.00 | 95 | 1020.1 |
| 20260503035839 | 15 | 68 | 12.9 | 14.5 | 0.00 | 0.00 | 0.00 | 95 | 1019.9 |
| 20260503035639 | 15 | 68 | 12.9 | 14.5 | 0.00 | 0.00 | 0.00 | 94 | 1019.9 |
| 20260503035140 | 15 | 68 | 12.9 | 14.5 | 0.00 | 0.00 | 0.00 | 94 | 1020.0 |
| 20260503035039 | 15 | 68 | 14.5 | 16.1 | 0.00 | 0.00 | 0.00 | 94 | 1020.0 |
| 20260503034939 | 15 | 90 | 14.5 | 17.7 | 0.00 | 0.00 | 0.00 | 93 | 1020.1 |
| 20260503034739 | 15 | 68 | 12.9 | 16.1 | 0.00 | 0.00 | 0.00 | 93 | 1020.1 |
| 20260503034640 | 15 | 90 | 16.1 | 19.3 | 0.00 | 0.00 | 0.00 | 90 | 1020.2 |
| 20260503034540 | 15 | 68 | 14.5 | 19.3 | 0.00 | 0.00 | 0.00 | 93 | 1020.0 |
| 20260503033639 | 15 | 90 | 14.5 | 16.1 | 0.00 | 0.00 | 0.00 | 92 | 1020.0 |
| 20260503033440 | 15 | 68 | 11.3 | 14.5 | 0.00 | 0.00 | 0.00 | 94 | 1020.1 |
| 20260503033340 | 15 | 90 | 12.9 | 14.5 | 0.00 | 0.00 | 0.00 | 91 | 1020.0 |
| 20260503032539 | 15 | 90 | 12.9 | 14.5 | 0.00 | 0.00 | 0.00 | 91 | 1019.9 |
| 20260503032340 | 15 | 90 | 11.3 | 16.1 | 0.00 | 0.00 | 0.00 | 93 | 1020.3 |
| 20260503032240 | 15 | 90 | 11.3 | 11.3 | 0.00 | 0.00 | 0.00 | 94 | 1020.1 |
| 20260503031940 | 15 | 68 | 12.9 | 14.5 | 0.00 | 0.00 | 0.00 | 94 | 1020.1 |
| 20260503031840 | 15 | 68 | 12.9 | 14.5 | 0.00 | 0.00 | 0.00 | 95 | 1020.0 |
| 20260503031740 | 15 | 68 | 12.9 | 14.5 | 0.00 | 0.00 | 0.00 | 95 | 1020.0 |
| 20260503031640 | 15 | 68 | 11.3 | 14.5 | 0.00 | 0.00 | 0.00 | 94 | 1020.1 |
| 20260503031540 | 15 | 90 | 12.9 | 14.5 | 0.00 | 0.00 | 0.00 | 94 | 1020.2 |
| 20260503030940 | 15 | 68 | 14.5 | 16.1 | 0.00 | 0.00 | 0.00 | 93 | 1019.8 |
| 20260503030740 | 15 | 90 | 12.9 | 14.5 | 0.00 | 0.00 | 0.00 | 93 | 1020.2 |
| 20260503030641 | 15 | 68 | 14.5 | 16.1 | 0.00 | 0.00 | 0.00 | 94 | 1020.4 |
| 20260503030539 | 15 | 68 | 12.9 | 16.1 | 0.00 | 0.00 | 0.00 | 93 | 1020.1 |
| 20260503030240 | 15 | 68 | 11.3 | 14.5 | 0.00 | 0.00 | 0.00 | 94 | 1020.0 |
| 20260503030140 | 15 | 90 | 11.3 | 14.5 | 0.00 | 0.00 | 0.00 | 91 | 1020.2 |
| 20260503025839 | 15 | 90 | 12.9 | 14.5 | 0.00 | 0.00 | 0.00 | 91 | 1020.2 |
| 20260503025739 | 15 | 68 | 11.3 | 14.5 | 0.00 | 0.00 | 0.00 | 95 | 1020.3 |
| 20260503025639 | 15 | 68 | 11.3 | 14.5 | 0.00 | 0.00 | 0.00 | 94 | 1020.5 |
| 20260503025339 | 15 | 68 | 11.3 | 12.9 | 0.00 | 0.00 | 0.00 | 95 | 1020.4 |
| 20260503025039 | 15 | 68 | 12.9 | 14.5 | 0.00 | 0.00 | 0.00 | 93 | 1020.2 |
| 20260503024939 | 15 | 68 | 12.9 | 14.5 | 0.00 | 0.00 | 0.00 | 94 | 1020.2 |
| 20260503024839 | 15 | 68 | 12.9 | 14.5 | 0.00 | 0.00 | 0.00 | 95 | 1020.2 |
| 20260503024340 | 15 | 68 | 12.9 | 14.5 | 0.00 | 0.00 | 0.00 | 94 | 1020.2 |
| 20260503024139 | 15 | 90 | 12.9 | 14.5 | 0.00 | 0.00 | 0.00 | 93 | 1020.4 |
| 20260503024039 | 15 | 90 | 12.9 | 14.5 | 0.00 | 0.00 | 0.00 | 92 | 1020.3 |
| 20260503023940 | 15 | 90 | 12.9 | 14.5 | 0.00 | 0.00 | 0.00 | 92 | 1020.5 |
| 20260503023840 | 15 | 90 | 12.9 | 14.5 | 0.00 | 0.00 | 0.00 | 93 | 1020.4 |
| 20260503023740 | 15 | 68 | 12.9 | 14.5 | 0.00 | 0.00 | 0.00 | 93 | 1020.4 |
| 20260503023540 | 15 | 68 | 12.9 | 14.5 | 0.00 | 0.00 | 0.00 | 92 | 1020.5 |
| 20260503023440 | 15 | 68 | 12.9 | 14.5 | 0.00 | 0.00 | 0.00 | 89 | 1020.3 |
| 20260503023140 | 16 | 90 | 9.7 | 11.3 | 0.00 | 0.00 | 0.00 | 90 | 1020.4 |
| 20260503023039 | 15 | 90 | 11.3 | 12.9 | 0.00 | 0.00 | 0.00 | 87 | 1020.5 |
| 20260503022939 | 15 | 90 | 11.3 | 11.3 | 0.00 | 0.00 | 0.00 | 92 | 1020.4 |
| 20260503022839 | 15 | 68 | 11.3 | 14.5 | 0.00 | 0.00 | 0.00 | 93 | 1020.6 |
| 20260503022740 | 15 | 90 | 11.3 | 12.9 | 0.00 | 0.00 | 0.00 | 91 | 1020.3 |
| 20260503022539 | 15 | 90 | 12.9 | 12.9 | 0.00 | 0.00 | 0.00 | 90 | 1020.5 |
| 20260503022239 | 15 | 68 | 9.7 | 11.3 | 0.00 | 0.00 | 0.00 | 93 | 1020.5 |
| 20260503021839 | 15 | 68 | 12.9 | 14.5 | 0.00 | 0.00 | 0.00 | 90 | 1020.5 |
| 20260503021739 | 15 | 68 | 12.9 | 14.5 | 0.00 | 0.00 | 0.00 | 93 | 1020.6 |
| 20260503021340 | 15 | 68 | 14.5 | 16.1 | 0.00 | 0.00 | 0.00 | 92 | 1020.4 |
| 20260503021240 | 15 | 68 | 12.9 | 17.7 | 0.00 | 0.00 | 0.00 | 91 | 1020.4 |
| 20260503020840 | 15 | 68 | 11.3 | 14.5 | 0.00 | 0.00 | 0.00 | 91 | 1020.5 |
| 20260503020540 | 15 | 90 | 11.3 | 12.9 | 0.00 | 0.00 | 0.00 | 88 | 1020.6 |
| 20260503020440 | 16 | 90 | 9.7 | 12.9 | 0.00 | 0.00 | 0.00 | 91 | 1020.5 |
| 20260503020039 | 16 | 90 | 9.7 | 11.3 | 0.00 | 0.00 | 0.00 | 90 | 1020.4 |
| 20260503015939 | 16 | 90 | 12.9 | 14.5 | 0.00 | 0.00 | 0.00 | 91 | 1020.4 |
| 20260503015539 | 16 | 68 | 11.3 | 12.9 | 0.00 | 0.00 | 0.00 | 89 | 1020.3 |
| 20260503015439 | 16 | 68 | 11.3 | 12.9 | 0.00 | 0.00 | 0.00 | 92 | 1020.5 |
| 20260503015339 | 16 | 68 | 12.9 | 14.5 | 0.00 | 0.00 | 0.00 | 90 | 1020.6 |
| 20260503014840 | 16 | 68 | 11.3 | 12.9 | 0.00 | 0.00 | 0.00 | 91 | 1020.3 |
| 20260503014740 | 16 | 90 | 12.9 | 14.5 | 0.00 | 0.00 | 0.00 | 88 | 1020.4 |
| 20260503014539 | 16 | 90 | 12.9 | 14.5 | 0.00 | 0.00 | 0.00 | 85 | 1020.4 |
| 20260503014439 | 16 | 90 | 12.9 | 14.5 | 0.00 | 0.00 | 0.00 | 85 | 1020.5 |
| 20260503014239 | 16 | 90 | 9.7 | 11.3 | 0.00 | 0.00 | 0.00 | 89 | 1020.2 |
| 20260503013639 | 16 | 68 | 11.3 | 11.3 | 0.00 | 0.00 | 0.00 | 90 | 1020.4 |
| 20260503013539 | 16 | 112 | 11.3 | 12.9 | 0.00 | 0.00 | 0.00 | 91 | 1020.4 |
| 20260503013240 | 16 | 68 | 12.9 | 14.5 | 0.00 | 0.00 | 0.00 | 90 | 1020.5 |
| 20260503013140 | 16 | 90 | 12.9 | 14.5 | 0.00 | 0.00 | 0.00 | 91 | 1020.5 |
| 20260503013040 | 16 | 90 | 12.9 | 14.5 | 0.00 | 0.00 | 0.00 | 91 | 1020.3 |
| 20260503012540 | 16 | 90 | 8.0 | 11.3 | 0.00 | 0.00 | 0.00 | 88 | 1020.7 |
| 20260503012440 | 16 | 68 | 9.7 | 12.9 | 0.00 | 0.00 | 0.00 | 89 | 1020.4 |
| 20260503012139 | 16 | 68 | 14.5 | 17.7 | 0.00 | 0.00 | 0.00 | 88 | 1020.7 |
| 20260503011839 | 16 | 68 | 11.3 | 14.5 | 0.00 | 0.00 | 0.00 | 93 | 1020.5 |
| 20260503011639 | 16 | 68 | 14.5 | 17.7 | 0.00 | 0.00 | 0.00 | 90 | 1020.7 |
| 20260503011439 | 16 | 90 | 12.9 | 14.5 | 0.00 | 0.00 | 0.00 | 90 | 1020.5 |
| 20260503011140 | 16 | 68 | 11.3 | 12.9 | 0.00 | 0.00 | 0.00 | 88 | 1020.6 |
| 20260503010940 | 16 | 90 | 11.3 | 12.9 | 0.00 | 0.00 | 0.00 | 85 | 1020.5 |
| 20260503010740 | 16 | 90 | 11.3 | 12.9 | 0.00 | 0.00 | 0.00 | 91 | 1020.6 |
| 20260503010539 | 16 | 68 | 11.3 | 14.5 | 0.00 | 0.00 | 0.00 | 87 | 1020.6 |
| 20260503010439 | 16 | 68 | 11.3 | 14.5 | 0.00 | 0.00 | 0.00 | 87 | 1020.7 |
| 20260503010339 | 16 | 68 | 9.7 | 11.3 | 0.00 | 0.00 | 0.00 | 91 | 1020.7 |
| 20260503010040 | 16 | 68 | 12.9 | 14.5 | 0.00 | 0.00 | 0.00 | 87 | 1020.6 |
| 20260503005539 | 16 | 90 | 12.9 | 14.5 | 0.00 | 0.00 | 0.00 | 90 | 1020.7 |
| 20260503005440 | 16 | 90 | 12.9 | 14.5 | 0.00 | 0.00 | 0.00 | 90 | 1020.8 |
| 20260503005339 | 16 | 68 | 12.9 | 14.5 | 0.00 | 0.00 | 0.00 | 90 | 1020.7 |
| 20260503005140 | 16 | 90 | 14.5 | 16.1 | 0.00 | 0.00 | 0.00 | 88 | 1020.7 |
| 20260503004840 | 16 | 90 | 12.9 | 14.5 | 0.00 | 0.00 | 0.00 | 88 | 1020.7 |
| 20260503004740 | 16 | 90 | 11.3 | 12.9 | 0.00 | 0.00 | 0.00 | 87 | 1020.8 |
| 20260503004640 | 16 | 90 | 11.3 | 12.9 | 0.00 | 0.00 | 0.00 | 90 | 1020.7 |
| 20260503004540 | 16 | 90 | 11.3 | 14.5 | 0.00 | 0.00 | 0.00 | 86 | 1020.9 |
| 20260503004440 | 16 | 90 | 11.3 | 14.5 | 0.00 | 0.00 | 0.00 | 87 | 1020.6 |
| 20260503004340 | 16 | 90 | 11.3 | 14.5 | 0.00 | 0.00 | 0.00 | 85 | 1021.0 |
| 20260503004239 | 16 | 68 | 9.7 | 11.3 | 0.00 | 0.00 | 0.00 | 87 | 1020.6 |
| 20260503003640 | 16 | 68 | 11.3 | 12.9 | 0.00 | 0.00 | 0.00 | 89 | 1021.0 |
| 20260503003240 | 16 | 68 | 12.9 | 14.5 | 0.00 | 0.00 | 0.00 | 88 | 1020.9 |
| 20260503003040 | 16 | 90 | 12.9 | 14.5 | 0.00 | 0.00 | 0.00 | 86 | 1020.9 |
| 20260503002339 | 16 | 90 | 11.3 | 12.9 | 0.00 | 0.00 | 0.00 | 85 | 1021.0 |
| 20260503002140 | 16 | 68 | 11.3 | 11.3 | 0.00 | 0.00 | 0.00 | 85 | 1021.0 |
| 20260503002040 | 16 | 68 | 9.7 | 11.3 | 0.00 | 0.00 | 0.00 | 89 | 1021.1 |
| 20260503001840 | 16 | 68 | 11.3 | 11.3 | 0.00 | 0.00 | 0.00 | 85 | 1021.1 |
| 20260503001639 | 16 | 68 | 11.3 | 12.9 | 0.00 | 0.00 | 0.00 | 84 | 1021.1 |
| 20260503001440 | 16 | 90 | 8.0 | 11.3 | 0.00 | 0.00 | 0.00 | 88 | 1020.9 |
| 20260503001139 | 16 | 68 | 9.7 | 11.3 | 0.00 | 0.00 | 0.00 | 86 | 1021.2 |
| 20260503001039 | 16 | 90 | 11.3 | 11.3 | 0.00 | 0.00 | 0.00 | 83 | 1021.1 |
| 20260503000940 | 16 | 68 | 11.3 | 11.3 | 0.00 | 0.00 | 0.00 | 85 | 1021.0 |
| 20260503000840 | 16 | 68 | 9.7 | 11.3 | 0.00 | 0.00 | 0.00 | 87 | 1021.0 |
| 20260503000740 | 16 | 90 | 11.3 | 12.9 | 0.00 | 0.00 | 0.00 | 86 | 1021.1 |
| 20260503000539 | 16 | 90 | 11.3 | 12.9 | 0.00 | 0.00 | 0.00 | 86 | 1021.2 |
| 20260503000440 | 16 | 90 | 11.3 | 12.9 | 0.00 | 0.00 | 0.00 | 86 | 1021.3 |
| 20260503000339 | 16 | 90 | 11.3 | 12.9 | 0.00 | 0.00 | 0.00 | 86 | 1021.3 |
| 20260503000240 | 16 | 90 | 11.3 | 12.9 | 0.00 | 0.00 | 0.00 | 86 | 1021.2 |
| 20260502235840 | 16 | 90 | 11.3 | 11.3 | 0.00 | 0.00 | 0.00 | 88 | 1021.3 |
| 20260502235740 | 16 | 90 | 11.3 | 11.3 | 0.00 | 0.00 | 0.00 | 88 | 1021.1 |
| 20260502235539 | 16 | 90 | 11.3 | 11.3 | 0.00 | 0.00 | 0.00 | 87 | 1021.0 |
| 20260502235140 | 16 | 90 | 11.3 | 11.3 | 0.00 | 0.00 | 0.00 | 85 | 1021.1 |
| 20260502235040 | 16 | 68 | 11.3 | 14.5 | 0.00 | 0.00 | 0.00 | 83 | 1021.2 |
| 20260502234940 | 16 | 68 | 12.9 | 14.5 | 0.00 | 0.00 | 0.00 | 82 | 1021.3 |
| 20260502234639 | 16 | 90 | 11.3 | 14.5 | 0.00 | 0.00 | 0.00 | 87 | 1021.3 |
| 20260502233939 | 16 | 90 | 11.3 | 14.5 | 0.00 | 0.00 | 0.00 | 89 | 1021.2 |
| 20260502233640 | 16 | 90 | 11.3 | 14.5 | 0.00 | 0.00 | 0.00 | 86 | 1021.3 |
| 20260502233540 | 16 | 68 | 12.9 | 14.5 | 0.00 | 0.00 | 0.00 | 86 | 1021.3 |
| 20260502233440 | 16 | 90 | 11.3 | 14.5 | 0.00 | 0.00 | 0.00 | 86 | 1021.4 |
| 20260502233139 | 16 | 90 | 11.3 | 14.5 | 0.00 | 0.00 | 0.00 | 89 | 1021.1 |
| 20260502233040 | 16 | 90 | 11.3 | 12.9 | 0.00 | 0.00 | 0.00 | 91 | 1021.2 |
| 20260502232940 | 16 | 90 | 12.9 | 14.5 | 0.00 | 0.00 | 0.00 | 88 | 1021.3 |
| 20260502232840 | 16 | 90 | 11.3 | 14.5 | 0.00 | 0.00 | 0.00 | 90 | 1021.3 |
| 20260502232739 | 16 | 90 | 11.3 | 16.1 | 0.00 | 0.00 | 0.00 | 88 | 1021.5 |
| 20260502232640 | 16 | 68 | 11.3 | 14.5 | 0.00 | 0.00 | 0.00 | 87 | 1021.3 |
| 20260502232439 | 16 | 90 | 11.3 | 14.5 | 0.00 | 0.00 | 0.00 | 84 | 1021.5 |
| 20260502232339 | 17 | 90 | 12.9 | 14.5 | 0.00 | 0.00 | 0.00 | 85 | 1021.4 |
| 20260502232239 | 17 | 90 | 12.9 | 14.5 | 0.00 | 0.00 | 0.00 | 85 | 1021.4 |
| 20260502232139 | 17 | 90 | 11.3 | 11.3 | 0.00 | 0.00 | 0.00 | 85 | 1021.7 |
| 20260502231940 | 17 | 90 | 11.3 | 12.9 | 0.00 | 0.00 | 0.00 | 86 | 1021.5 |
| 20260502231840 | 17 | 90 | 11.3 | 14.5 | 0.00 | 0.00 | 0.00 | 85 | 1021.5 |
| 20260502231739 | 17 | 90 | 11.3 | 12.9 | 0.00 | 0.00 | 0.00 | 86 | 1021.5 |
| 20260502231539 | 17 | 90 | 11.3 | 11.3 | 0.00 | 0.00 | 0.00 | 84 | 1021.6 |
| 20260502231039 | 17 | 68 | 11.3 | 12.9 | 0.00 | 0.00 | 0.00 | 85 | 1021.4 |
| 20260502230939 | 17 | 68 | 11.3 | 12.9 | 0.00 | 0.00 | 0.00 | 84 | 1021.5 |
| 20260502230839 | 17 | 90 | 11.3 | 11.3 | 0.00 | 0.00 | 0.00 | 87 | 1021.7 |
| 20260502230540 | 17 | 68 | 11.3 | 12.9 | 0.00 | 0.00 | 0.00 | 85 | 1021.4 |
| 20260502230340 | 16 | 68 | 11.3 | 11.3 | 0.00 | 0.00 | 0.00 | 89 | 1021.4 |
| 20260502230240 | 16 | 68 | 9.7 | 11.3 | 0.00 | 0.00 | 0.00 | 90 | 1021.5 |
| 20260502230140 | 16 | 68 | 11.3 | 11.3 | 0.00 | 0.00 | 0.00 | 88 | 1021.4 |
| 20260502225940 | 16 | 68 | 11.3 | 11.3 | 0.00 | 0.00 | 0.00 | 87 | 1021.6 |
| 20260502225839 | 16 | 68 | 11.3 | 12.9 | 0.00 | 0.00 | 0.00 | 87 | 1021.7 |
| 20260502225739 | 16 | 90 | 11.3 | 12.9 | 0.00 | 0.00 | 0.00 | 86 | 1021.6 |
| 20260502225639 | 17 | 68 | 11.3 | 12.9 | 0.00 | 0.00 | 0.00 | 89 | 1021.3 |
| 20260502225539 | 17 | 68 | 9.7 | 11.3 | 0.00 | 0.00 | 0.00 | 92 | 1021.3 |
| 20260502225439 | 17 | 90 | 11.3 | 11.3 | 0.00 | 0.00 | 0.00 | 89 | 1021.7 |
| 20260502225339 | 17 | 90 | 11.3 | 12.9 | 0.00 | 0.00 | 0.00 | 87 | 1021.6 |
| 20260502225239 | 17 | 90 | 11.3 | 11.3 | 0.00 | 0.00 | 0.00 | 89 | 1021.7 |
| 20260502225140 | 17 | 90 | 9.7 | 11.3 | 0.00 | 0.00 | 0.00 | 89 | 1021.6 |
| 20260502225040 | 17 | 90 | 9.7 | 11.3 | 0.00 | 0.00 | 0.00 | 88 | 1021.6 |
| 20260502224439 | 17 | 68 | 9.7 | 11.3 | 0.00 | 0.00 | 0.00 | 85 | 1021.8 |
| 20260502224339 | 17 | 68 | 6.4 | 9.7 | 0.00 | 0.00 | 0.00 | 88 | 1021.5 |
| 20260502224240 | 17 | 68 | 8.0 | 9.7 | 0.00 | 0.00 | 0.00 | 85 | 1021.5 |
| 20260502224140 | 17 | 68 | 8.0 | 11.3 | 0.00 | 0.00 | 0.00 | 82 | 1021.6 |
| 20260502223839 | 17 | 68 | 8.0 | 9.7 | 0.00 | 0.00 | 0.00 | 87 | 1021.8 |
| 20260502223739 | 17 | 68 | 8.0 | 9.7 | 0.00 | 0.00 | 0.00 | 88 | 1021.5 |
| 20260502223540 | 17 | 68 | 8.0 | 9.7 | 0.00 | 0.00 | 0.00 | 88 | 1021.7 |
| 20260502223440 | 17 | 68 | 9.7 | 9.7 | 0.00 | 0.00 | 0.00 | 85 | 1021.7 |
| 20260502223339 | 17 | 68 | 9.7 | 9.7 | 0.00 | 0.00 | 0.00 | 86 | 1021.7 |
| 20260502223239 | 17 | 90 | 9.7 | 11.3 | 0.00 | 0.00 | 0.00 | 84 | 1021.8 |
| 20260502222639 | 17 | 68 | 11.3 | 11.3 | 0.00 | 0.00 | 0.00 | 83 | 1021.7 |
| 20260502222540 | 17 | 90 | 11.3 | 11.3 | 0.00 | 0.00 | 0.00 | 81 | 1021.6 |
| 20260502222340 | 17 | 68 | 9.7 | 11.3 | 0.00 | 0.00 | 0.00 | 82 | 1021.7 |
| 20260502221940 | 17 | 68 | 9.7 | 11.3 | 0.00 | 0.00 | 0.00 | 82 | 1021.5 |
| 20260502221840 | 17 | 68 | 9.7 | 11.3 | 0.00 | 0.00 | 0.00 | 81 | 1021.6 |
| 20260502221740 | 17 | 68 | 9.7 | 11.3 | 0.00 | 0.00 | 0.00 | 81 | 1021.5 |
| 20260502221640 | 17 | 68 | 11.3 | 11.3 | 0.00 | 0.00 | 0.00 | 83 | 1021.5 |
| 20260502221540 | 17 | 68 | 9.7 | 11.3 | 0.00 | 0.00 | 0.00 | 83 | 1021.8 |
| 20260502221240 | 17 | 90 | 11.3 | 11.3 | 0.00 | 0.00 | 0.00 | 84 | 1021.6 |
| 20260502221140 | 17 | 90 | 9.7 | 9.7 | 0.00 | 0.00 | 0.00 | 85 | 1021.5 |
| 20260502220940 | 17 | 90 | 9.7 | 11.3 | 0.00 | 0.00 | 0.00 | 82 | 1021.5 |
| 20260502220739 | 17 | 68 | 8.0 | 9.7 | 0.00 | 0.00 | 0.00 | 84 | 1021.6 |
| 20260502220639 | 17 | 68 | 8.0 | 9.7 | 0.00 | 0.00 | 0.00 | 85 | 1021.6 |
| 20260502220440 | 17 | 90 | 8.0 | 9.7 | 0.00 | 0.00 | 0.00 | 81 | 1021.6 |
| 20260502220339 | 17 | 90 | 8.0 | 9.7 | 0.00 | 0.00 | 0.00 | 80 | 1021.5 |
| 20260502220239 | 17 | 68 | 6.4 | 9.7 | 0.00 | 0.00 | 0.00 | 84 | 1021.6 |
| 20260502215740 | 17 | 90 | 8.0 | 9.7 | 0.00 | 0.00 | 0.00 | 79 | 1021.7 |
| 20260502215640 | 17 | 90 | 8.0 | 9.7 | 0.00 | 0.00 | 0.00 | 78 | 1021.4 |
| 20260502215440 | 17 | 90 | 6.4 | 8.0 | 0.00 | 0.00 | 0.00 | 82 | 1021.5 |
| 20260502215239 | 17 | 90 | 6.4 | 6.4 | 0.00 | 0.00 | 0.00 | 78 | 1021.6 |
| 20260502215139 | 17 | 90 | 6.4 | 8.0 | 0.00 | 0.00 | 0.00 | 76 | 1021.6 |
| 20260502214939 | 17 | 90 | 6.4 | 8.0 | 0.00 | 0.00 | 0.00 | 81 | 1021.5 |
| 20260502214439 | 17 | 90 | 6.4 | 8.0 | 0.00 | 0.00 | 0.00 | 78 | 1021.4 |
| 20260502214039 | 17 | 90 | 8.0 | 9.7 | 0.00 | 0.00 | 0.00 | 78 | 1021.7 |
| 20260502213839 | 17 | 90 | 8.0 | 9.7 | 0.00 | 0.00 | 0.00 | 77 | 1021.4 |
| 20260502213739 | 17 | 90 | 8.0 | 9.7 | 0.00 | 0.00 | 0.00 | 73 | 1021.4 |
| 20260502213140 | 17 | 90 | 6.4 | 9.7 | 0.00 | 0.00 | 0.00 | 86 | 1021.4 |
| 20260502212739 | 17 | 90 | 6.4 | 9.7 | 0.00 | 0.00 | 0.00 | 80 | 1021.6 |
| 20260502212639 | 17 | 90 | 9.7 | 9.7 | 0.00 | 0.00 | 0.00 | 76 | 1021.6 |
| 20260502212539 | 17 | 90 | 9.7 | 11.3 | 0.00 | 0.00 | 0.00 | 77 | 1021.5 |
| 20260502212439 | 17 | 90 | 9.7 | 11.3 | 0.00 | 0.00 | 0.00 | 84 | 1021.6 |
| 20260502212240 | 17 | 90 | 11.3 | 11.3 | 0.00 | 0.00 | 0.00 | 76 | 1021.6 |
| 20260502211740 | 17 | 90 | 9.7 | 11.3 | 0.00 | 0.00 | 0.00 | 77 | 1021.5 |
| 20260502211640 | 18 | 90 | 8.0 | 9.7 | 0.00 | 0.00 | 0.00 | 79 | 1021.5 |
| 20260502211039 | 17 | 90 | 4.8 | 4.8 | 0.00 | 0.00 | 0.00 | 72 | 1021.5 |
| 20260502210839 | 17 | 90 | 4.8 | 4.8 | 0.00 | 0.00 | 0.00 | 73 | 1021.4 |
| 20260502210340 | 17 | 90 | 6.4 | 6.4 | 0.00 | 0.00 | 0.00 | 75 | 1021.5 |
| 20260502210140 | 17 | 90 | 6.4 | 6.4 | 0.00 | 0.00 | 0.00 | 79 | 1021.5 |
| 20260502210039 | 17 | 90 | 6.4 | 6.4 | 0.00 | 0.00 | 0.00 | 79 | 1021.5 |
| 20260502205639 | 17 | 90 | 6.4 | 8.0 | 0.00 | 0.00 | 0.00 | 83 | 1021.5 |
| 20260502205539 | 17 | 68 | 6.4 | 6.4 | 0.00 | 0.00 | 0.00 | 85 | 1021.6 |
| 20260502205439 | 17 | 68 | 6.4 | 8.0 | 0.00 | 0.00 | 0.00 | 85 | 1021.5 |
| 20260502205039 | 17 | 68 | 8.0 | 9.7 | 0.00 | 0.00 | 0.00 | 84 | 1021.5 |
| 20260502204840 | 17 | 90 | 9.7 | 9.7 | 0.00 | 0.00 | 0.00 | 78 | 1021.5 |
| 20260502204740 | 17 | 90 | 8.0 | 9.7 | 0.00 | 0.00 | 0.00 | 80 | 1021.5 |
| 20260502204640 | 17 | 90 | 6.4 | 8.0 | 0.00 | 0.00 | 0.00 | 77 | 1021.5 |
| 20260502204240 | 17 | 112 | 6.4 | 6.4 | 0.00 | 0.00 | 0.00 | 76 | 1021.7 |
| 20260502203840 | 17 | 112 | 1.6 | 3.2 | 0.00 | 0.00 | 0.00 | 70 | 1021.5 |
| 20260502203339 | 17 | 90 | 1.6 | 3.2 | 0.00 | 0.00 | 0.00 | 68 | 1021.7 |
| 20260502203140 | 17 | 90 | 1.6 | 3.2 | 0.00 | 0.00 | 0.00 | 69 | 1021.6 |
| 20260502203040 | 17 | 112 | 1.6 | 3.2 | 0.00 | 0.00 | 0.00 | 70 | 1021.4 |
| 20260502202940 | 17 | 90 | 1.6 | 3.2 | 0.00 | 0.00 | 0.00 | 69 | 1021.6 |
| 20260502202840 | 17 | 112 | 1.6 | 1.6 | 0.00 | 0.00 | 0.00 | 70 | 1021.4 |
| 20260502202740 | 17 | 90 | 0.0 | 1.6 | 0.00 | 0.00 | 0.00 | 70 | 1021.5 |
| 20260502202539 | 17 | 135 | 0.0 | 1.6 | 0.00 | 0.00 | 0.00 | 70 | 1021.6 |
| 20260502202440 | 17 | 90 | 0.0 | 1.6 | 0.00 | 0.00 | 0.00 | 71 | 1021.6 |
| 20260502202339 | 17 | 112 | 0.0 | 0.0 | 0.00 | 0.00 | 0.00 | 69 | 1021.3 |
| 20260502202139 | 17 | 112 | 0.0 | 0.0 | 0.00 | 0.00 | 0.00 | 69 | 1021.5 |
| 20260502202039 | 17 | 112 | 0.0 | 0.0 | 0.00 | 0.00 | 0.00 | 69 | 1021.5 |
| 20260502201839 | 17 | 112 | 0.0 | 1.6 | 0.00 | 0.00 | 0.00 | 69 | 1021.6 |
| 20260502201640 | 17 | 112 | 0.0 | 1.6 | 0.00 | 0.00 | 0.00 | 69 | 1021.5 |
| 20260502201539 | 17 | 90 | 0.0 | 1.6 | 0.00 | 0.00 | 0.00 | 72 | 1021.5 |
| 20260502201239 | 17 | 112 | 0.0 | 1.6 | 0.00 | 0.00 | 0.00 | 72 | 1021.4 |
| 20260502200939 | 17 | 112 | 0.0 | 1.6 | 0.00 | 0.00 | 0.00 | 71 | 1021.4 |
| 20260502200839 | 17 | 112 | 0.0 | 1.6 | 0.00 | 0.00 | 0.00 | 71 | 1021.6 |
| 20260502200739 | 17 | 112 | 0.0 | 1.6 | 0.00 | 0.00 | 0.00 | 71 | 1021.5 |
| 20260502200639 | 17 | 90 | 0.0 | 0.0 | 0.00 | 0.00 | 0.00 | 73 | 1021.4 |
| 20260502200539 | 17 | 90 | 0.0 | 0.0 | 0.00 | 0.00 | 0.00 | 73 | 1021.4 |
| 20260502200439 | 17 | 90 | 0.0 | 0.0 | 0.00 | 0.00 | 0.00 | 71 | 1021.4 |
| 20260502200340 | 17 | 90 | 0.0 | 1.6 | 0.00 | 0.00 | 0.00 | 71 | 1021.5 |
| 20260502200240 | 17 | 112 | 0.0 | 1.6 | 0.00 | 0.00 | 0.00 | 72 | 1021.5 |
| 20260502200040 | 17 | 112 | 0.0 | 1.6 | 0.00 | 0.00 | 0.00 | 72 | 1021.4 |
| 20260502195940 | 17 | 90 | 0.0 | 1.6 | 0.00 | 0.00 | 0.00 | 72 | 1021.6 |
| 20260502195740 | 17 | 112 | 0.0 | 1.6 | 0.00 | 0.00 | 0.00 | 69 | 1021.5 |
| 20260502195540 | 17 | 135 | 0.0 | 1.6 | 0.00 | 0.00 | 0.00 | 68 | 1021.3 |
| 20260502195440 | 17 | 112 | 1.6 | 1.6 | 0.00 | 0.00 | 0.00 | 68 | 1021.3 |
| 20260502195339 | 17 | 112 | 1.6 | 1.6 | 0.00 | 0.00 | 0.00 | 68 | 1021.5 |
| 20260502194740 | 17 | 112 | 1.6 | 1.6 | 0.00 | 0.00 | 0.00 | 69 | 1021.3 |
| 20260502194640 | 17 | 112 | 0.0 | 1.6 | 0.00 | 0.00 | 0.00 | 71 | 1021.4 |
| 20260502194539 | 17 | 112 | 0.0 | 1.6 | 0.00 | 0.00 | 0.00 | 69 | 1021.7 |
| 20260502194040 | 17 | 112 | 0.0 | 1.6 | 0.00 | 0.00 | 0.00 | 73 | 1021.4 |
| 20260502193740 | 18 | 202 | 0.0 | 0.0 | 0.00 | 0.00 | 0.00 | 75 | 1021.5 |
| 20260502193639 | 18 | 202 | 0.0 | 0.0 | 0.00 | 0.00 | 0.00 | 75 | 1021.4 |
| 20260502193339 | 18 | 202 | 0.0 | 1.6 | 0.00 | 0.00 | 0.00 | 77 | 1021.5 |
| 20260502193140 | 18 | 90 | 0.0 | 1.6 | 0.00 | 0.00 | 0.00 | 84 | 1021.4 |
| 20260502193040 | 18 | 68 | 1.6 | 1.6 | 0.00 | 0.00 | 0.00 | 77 | 1021.3 |
| 20260502192740 | 18 | 315 | 0.0 | 1.6 | 0.00 | 0.00 | 0.00 | 78 | 1021.2 |
| 20260502192640 | 18 | 315 | 1.6 | 1.6 | 0.00 | 0.00 | 0.00 | 78 | 1021.2 |
| 20260502192440 | 19 | 315 | 3.2 | 3.2 | 0.00 | 0.00 | 0.00 | 67 | 1021.3 |
| 20260502192139 | 19 | 338 | 3.2 | 3.2 | 0.00 | 0.00 | 0.00 | 66 | 1021.3 |
| 20260502192039 | 19 | 338 | 3.2 | 3.2 | 0.00 | 0.00 | 0.00 | 69 | 1021.3 |
| 20260502191840 | 19 | 338 | 3.2 | 3.2 | 0.00 | 0.00 | 0.00 | 70 | 1021.3 |
| 20260502191740 | 18 | 338 | 3.2 | 3.2 | 0.00 | 0.00 | 0.00 | 71 | 1021.3 |
| 20260502191540 | 18 | 338 | 3.2 | 3.2 | 0.00 | 0.00 | 0.00 | 70 | 1021.2 |
| 20260502191239 | 18 | 292 | 0.0 | 0.0 | 0.00 | 0.00 | 0.00 | 78 | 1021.2 |
| 20260502191040 | 18 | 315 | 0.0 | 0.0 | 0.00 | 0.00 | 0.00 | 77 | 1021.3 |
| 20260502190739 | 18 | 90 | 1.6 | 1.6 | 0.00 | 0.00 | 0.00 | 77 | 1021.3 |
| 20260502190439 | 17 | 158 | 0.0 | 1.6 | 0.00 | 0.00 | 0.00 | 76 | 1021.2 |
| 20260502190239 | 17 | 270 | 0.0 | 0.0 | 0.00 | 0.00 | 0.00 | 77 | 1021.1 |
| 20260502185939 | 18 | 270 | 0.0 | 0.0 | 0.00 | 0.00 | 0.00 | 75 | 1021.1 |
| 20260502185739 | 18 | 270 | 0.0 | 0.0 | 0.00 | 0.00 | 0.00 | 74 | 1021.0 |
| 20260502185338 | 18 | 315 | 0.0 | 1.6 | 0.00 | 0.00 | 0.00 | 75 | 1021.0 |
| 20260502184839 | 18 | 270 | 0.0 | 0.0 | 0.00 | 0.00 | 0.00 | 74 | 1021.0 |
| 20260502184540 | 18 | 270 | 0.0 | 0.0 | 0.00 | 0.00 | 0.00 | 74 | 1021.0 |
| 20260502184440 | 18 | 270 | 0.0 | 0.0 | 0.00 | 0.00 | 0.00 | 75 | 1021.1 |
| 20260502184039 | 18 | 270 | 0.0 | 0.0 | 0.00 | 0.00 | 0.00 | 75 | 1020.9 |
| 20260502183740 | 18 | 270 | 0.0 | 0.0 | 0.00 | 0.00 | 0.00 | 74 | 1020.9 |
| 20260502183640 | 18 | 270 | 0.0 | 0.0 | 0.00 | 0.00 | 0.00 | 74 | 1020.9 |
| 20260502183540 | 18 | 270 | 0.0 | 0.0 | 0.00 | 0.00 | 0.00 | 74 | 1021.0 |
| 20260502183440 | 18 | 270 | 0.0 | 0.0 | 0.00 | 0.00 | 0.00 | 74 | 1020.9 |
| 20260502183340 | 18 | 292 | 0.0 | 0.0 | 0.00 | 0.00 | 0.00 | 75 | 1020.8 |
| 20260502183239 | 18 | 270 | 0.0 | 0.0 | 0.00 | 0.00 | 0.00 | 74 | 1020.9 |
| 20260502182939 | 19 | 292 | 0.0 | 1.6 | 0.00 | 0.00 | 0.00 | 73 | 1020.9 |
| 20260502182739 | 19 | 292 | 0.0 | 1.6 | 0.00 | 0.00 | 0.00 | 72 | 1020.8 |
| 20260502182439 | 19 | 270 | 1.6 | 1.6 | 0.00 | 0.00 | 0.00 | 72 | 1020.7 |
| 20260502182239 | 19 | 292 | 1.6 | 1.6 | 0.00 | 0.00 | 0.00 | 71 | 1020.9 |
| 20260502181939 | 20 | 292 | 3.2 | 3.2 | 0.00 | 0.00 | 0.00 | 66 | 1021.0 |
| 20260502181839 | 20 | 315 | 1.6 | 3.2 | 0.00 | 0.00 | 0.00 | 70 | 1021.0 |
| 20260502181739 | 20 | 292 | 1.6 | 3.2 | 0.00 | 0.00 | 0.00 | 71 | 1020.8 |
| 20260502181440 | 19 | 225 | 0.0 | 1.6 | 0.00 | 0.00 | 0.00 | 68 | 1020.7 |
| 20260502181340 | 19 | 248 | 0.0 | 0.0 | 0.00 | 0.00 | 0.00 | 75 | 1020.8 |
| 20260502181240 | 19 | 270 | 0.0 | 0.0 | 0.00 | 0.00 | 0.00 | 76 | 1020.7 |
| 20260502181140 | 19 | 270 | 0.0 | 1.6 | 0.00 | 0.00 | 0.00 | 74 | 1020.9 |
| 20260502181040 | 19 | 248 | 0.0 | 0.0 | 0.00 | 0.00 | 0.00 | 73 | 1020.7 |
| 20260502180839 | 19 | 225 | 0.0 | 1.6 | 0.00 | 0.00 | 0.00 | 70 | 1020.9 |
| 20260502180639 | 19 | 248 | 0.0 | 1.6 | 0.00 | 0.00 | 0.00 | 80 | 1020.7 |
| 20260502180540 | 19 | 270 | 0.0 | 1.6 | 0.00 | 0.00 | 0.00 | 79 | 1020.6 |
| 20260502180440 | 19 | 292 | 0.0 | 1.6 | 0.00 | 0.00 | 0.00 | 78 | 1020.8 |
| 20260502180339 | 19 | 270 | 0.0 | 1.6 | 0.00 | 0.00 | 0.00 | 76 | 1020.7 |
| 20260502180140 | 19 | 292 | 1.6 | 1.6 | 0.00 | 0.00 | 0.00 | 76 | 1020.8 |
| 20260502170239 | 23 | 292 | 1.6 | 1.6 | 0.00 | 0.00 | 0.00 | 51 | 1020.8 |
| 20260502170139 | 23 | 292 | 1.6 | 3.2 | 0.00 | 0.00 | 0.00 | 51 | 1020.7 |
| 20260502164340 | 22 | 270 | 0.0 | 1.6 | 0.00 | 0.00 | 0.00 | 55 | 1021.0 |
| 20260502164039 | 22 | 315 | 1.6 | 1.6 | 0.00 | 0.00 | 0.00 | 54 | 1021.0 |
| 20260502163939 | 22 | 315 | 1.6 | 1.6 | 0.00 | 0.00 | 0.00 | 53 | 1020.9 |
| 20260502163739 | 22 | 315 | 1.6 | 3.2 | 0.00 | 0.00 | 0.00 | 54 | 1020.8 |
| 20260502163640 | 23 | 270 | 1.6 | 3.2 | 0.00 | 0.00 | 0.00 | 51 | 1021.0 |
| 20260502163339 | 22 | 292 | 1.6 | 3.2 | 0.00 | 0.00 | 0.00 | 54 | 1020.9 |
| 20260502163139 | 22 | 315 | 1.6 | 1.6 | 0.00 | 0.00 | 0.00 | 53 | 1020.8 |
| 20260502163039 | 22 | 315 | 1.6 | 1.6 | 0.00 | 0.00 | 0.00 | 54 | 1021.0 |
| 20260502162750 | 22 | 315 | 1.6 | 1.6 | 0.00 | 0.00 | 0.00 | 55 | 1021.0 |
| 20260502162539 | 23 | 292 | 3.2 | 3.2 | 0.00 | 0.00 | 0.00 | 54 | 1021.0 |
| 20260502162340 | 23 | 315 | 1.6 | 3.2 | 0.00 | 0.00 | 0.00 | 52 | 1021.0 |
| 20260502162239 | 23 | 315 | 3.2 | 3.2 | 0.00 | 0.00 | 0.00 | 52 | 1021.0 |
| 20260502162140 | 23 | 292 | 3.2 | 3.2 | 0.00 | 0.00 | 0.00 | 52 | 1020.9 |
| 20260502162040 | 23 | 270 | 1.6 | 3.2 | 0.00 | 0.00 | 0.00 | 51 | 1021.1 |
| 20260502161840 | 23 | 225 | 3.2 | 4.8 | 0.00 | 0.00 | 0.00 | 51 | 1021.2 |
| 20260502161739 | 23 | 248 | 3.2 | 4.8 | 0.00 | 0.00 | 0.00 | 51 | 1021.1 |
| 20260502161639 | 23 | 270 | 1.6 | 1.6 | 0.00 | 0.00 | 0.00 | 53 | 1021.0 |
| 20260502161340 | 23 | 225 | 1.6 | 3.2 | 0.00 | 0.00 | 0.00 | 52 | 1020.9 |
| 20260502161240 | 23 | 225 | 1.6 | 3.2 | 0.00 | 0.00 | 0.00 | 52 | 1020.9 |
| 20260502161140 | 23 | 315 | 0.0 | 1.6 | 0.00 | 0.00 | 0.00 | 52 | 1020.9 |
| 20260502160939 | 23 | 315 | 0.0 | 1.6 | 0.00 | 0.00 | 0.00 | 54 | 1021.1 |
| 20260502160839 | 23 | 292 | 0.0 | 1.6 | 0.00 | 0.00 | 0.00 | 53 | 1021.1 |
| 20260502160739 | 23 | 270 | 1.6 | 1.6 | 0.00 | 0.00 | 0.00 | 54 | 1021.0 |
| 20260502160440 | 23 | 292 | 1.6 | 3.2 | 0.00 | 0.00 | 0.00 | 53 | 1021.0 |
| 20260502160239 | 23 | 248 | 0.0 | 1.6 | 0.00 | 0.00 | 0.00 | 54 | 1021.3 |
| 20260502152339 | 23 | 270 | 0.0 | 1.6 | 0.00 | 0.00 | 0.00 | 51 | 1021.4 |
| 20260502151739 | 22 | 112 | 1.6 | 1.6 | 0.00 | 0.00 | 0.00 | 57 | 1021.6 |
| 20260502151639 | 22 | 45 | 1.6 | 3.2 | 0.00 | 0.00 | 0.00 | 54 | 1021.7 |
| 20260502151440 | 22 | 135 | 0.0 | 1.6 | 0.00 | 0.00 | 0.00 | 55 | 1021.6 |
| 20260502150939 | 22 | 338 | 0.0 | 1.6 | 0.00 | 0.00 | 0.00 | 56 | 1021.6 |
| 20260502150839 | 22 | 338 | 1.6 | 1.6 | 0.00 | 0.00 | 0.00 | 56 | 1021.6 |
| 20260502150639 | 22 | 315 | 1.6 | 3.2 | 0.00 | 0.00 | 0.00 | 54 | 1021.5 |
| 20260502150540 | 22 | 315 | 0.0 | 1.6 | 0.00 | 0.00 | 0.00 | 54 | 1021.6 |
| 20260502150440 | 22 | 338 | 1.6 | 1.6 | 0.00 | 0.00 | 0.00 | 53 | 1021.7 |
| 20260502130740 | 22 | 270 | 3.2 | 3.2 | 0.00 | 0.00 | 0.00 | 55 | 1023.2 |
| 20260502130640 | 22 | 270 | 4.8 | 6.4 | 0.00 | 0.00 | 0.00 | 55 | 1023.3 |
| 20260502130139 | 22 | 270 | 1.6 | 3.2 | 0.00 | 0.00 | 0.00 | 57 | 1023.4 |
| 20260502123540 | 21 | 338 | 1.6 | 1.6 | 0.00 | 0.00 | 0.00 | 58 | 1023.8 |
| 20260502123240 | 20 | 338 | 1.6 | 3.2 | 0.00 | 0.00 | 0.00 | 60 | 1023.8 |
| 20260502123140 | 21 | 338 | 1.6 | 1.6 | 0.00 | 0.00 | 0.00 | 58 | 1023.9 |
| 20260502123040 | 21 | 315 | 1.6 | 1.6 | 0.00 | 0.00 | 0.00 | 59 | 1023.7 |
| 20260502122940 | 21 | 338 | 1.6 | 1.6 | 0.00 | 0.00 | 0.00 | 56 | 1023.6 |
| 20260502122739 | 20 | 292 | 3.2 | 3.2 | 0.00 | 0.00 | 0.00 | 58 | 1024.0 |
| 20260502122439 | 21 | 0 | 1.6 | 1.6 | 0.00 | 0.00 | 0.00 | 59 | 1023.9 |
| 20260502121839 | 20 | 0 | 1.6 | 1.6 | 0.00 | 0.00 | 0.00 | 56 | 1024.1 |
| 20260502121739 | 20 | 338 | 1.6 | 3.2 | 0.00 | 0.00 | 0.00 | 57 | 1024.0 |
| 20260502121640 | 20 | 338 | 1.6 | 3.2 | 0.00 | 0.00 | 0.00 | 59 | 1024.0 |
| 20260502121539 | 20 | 338 | 3.2 | 3.2 | 0.00 | 0.00 | 0.00 | 62 | 1024.1 |
| 20260502121340 | 21 | 0 | 1.6 | 1.6 | 0.00 | 0.00 | 0.00 | 55 | 1023.9 |
| 20260502121040 | 21 | 248 | 1.6 | 1.6 | 0.00 | 0.00 | 0.00 | 57 | 1024.2 |
| 20260502120840 | 21 | 338 | 1.6 | 3.2 | 0.00 | 0.00 | 0.00 | 56 | 1024.3 |
| 20260502120639 | 20 | 0 | 1.6 | 3.2 | 0.00 | 0.00 | 0.00 | 56 | 1024.4 |
| 20260502115840 | 20 | 315 | 3.2 | 3.2 | 0.00 | 0.00 | 0.00 | 58 | 1024.1 |
| 20260502115740 | 21 | 338 | 3.2 | 3.2 | 0.00 | 0.00 | 0.00 | 59 | 1024.1 |
| 20260502115640 | 21 | 292 | 3.2 | 3.2 | 0.00 | 0.00 | 0.00 | 61 | 1024.2 |
| 20260502115540 | 20 | 315 | 3.2 | 4.8 | 0.00 | 0.00 | 0.00 | 63 | 1024.1 |
| 20260502115439 | 20 | 315 | 3.2 | 3.2 | 0.00 | 0.00 | 0.00 | 61 | 1024.2 |
| 20260502115339 | 20 | 338 | 3.2 | 3.2 | 0.00 | 0.00 | 0.00 | 64 | 1024.3 |
| 20260502115039 | 20 | 338 | 3.2 | 3.2 | 0.00 | 0.00 | 0.00 | 59 | 1024.4 |
| 20260502114839 | 20 | 315 | 3.2 | 3.2 | 0.00 | 0.00 | 0.00 | 58 | 1024.4 |
| 20260502114740 | 20 | 338 | 1.6 | 1.6 | 0.00 | 0.00 | 0.00 | 58 | 1024.4 |
| 20260502114440 | 20 | 292 | 1.6 | 3.2 | 0.00 | 0.00 | 0.00 | 59 | 1024.5 |
| 20260502114340 | 20 | 315 | 3.2 | 3.2 | 0.00 | 0.00 | 0.00 | 58 | 1024.6 |
| 20260502114240 | 20 | 315 | 3.2 | 3.2 | 0.00 | 0.00 | 0.00 | 59 | 1024.4 |
| 20260502114040 | 20 | 315 | 1.6 | 3.2 | 0.00 | 0.00 | 0.00 | 58 | 1024.4 |
| 20260502113940 | 20 | 292 | 3.2 | 3.2 | 0.00 | 0.00 | 0.00 | 63 | 1024.5 |
| 20260502113839 | 20 | 292 | 3.2 | 3.2 | 0.00 | 0.00 | 0.00 | 60 | 1024.4 |
| 20260502113639 | 20 | 315 | 3.2 | 3.2 | 0.00 | 0.00 | 0.00 | 60 | 1024.5 |
| 20260502113339 | 20 | 315 | 3.2 | 3.2 | 0.00 | 0.00 | 0.00 | 63 | 1024.4 |
| 20260502113139 | 20 | 315 | 3.2 | 3.2 | 0.00 | 0.00 | 0.00 | 60 | 1024.6 |
| 20260502112939 | 20 | 292 | 3.2 | 6.4 | 0.00 | 0.00 | 0.00 | 59 | 1024.6 |
| 20260502112640 | 20 | 270 | 3.2 | 3.2 | 0.00 | 0.00 | 0.00 | 62 | 1024.6 |
| 20260502112440 | 20 | 315 | 3.2 | 3.2 | 0.00 | 0.00 | 0.00 | 60 | 1024.7 |
| 20260502112240 | 21 | 338 | 0.0 | 1.6 | 0.00 | 0.00 | 0.00 | 58 | 1024.7 |
| 20260502111939 | 21 | 158 | 0.0 | 1.6 | 0.00 | 0.00 | 0.00 | 60 | 1024.7 |
| 20260502111839 | 21 | 338 | 3.2 | 3.2 | 0.00 | 0.00 | 0.00 | 60 | 1024.9 |
| 20260502111640 | 21 | 270 | 4.8 | 8.0 | 0.00 | 0.00 | 0.00 | 58 | 1024.8 |
| 20260502111540 | 21 | 248 | 1.6 | 3.2 | 0.00 | 0.00 | 0.00 | 57 | 1025.0 |
| 20260502111339 | 20 | 248 | 1.6 | 3.2 | 0.00 | 0.00 | 0.00 | 60 | 1024.9 |
| 20260502111239 | 20 | 135 | 0.0 | 1.6 | 0.00 | 0.00 | 0.00 | 58 | 1024.9 |
| 20260502111139 | 20 | 315 | 3.2 | 6.4 | 0.00 | 0.00 | 0.00 | 61 | 1025.0 |
| 20260502111039 | 20 | 292 | 3.2 | 6.4 | 0.00 | 0.00 | 0.00 | 60 | 1025.2 |
| 20260502110839 | 20 | 315 | 1.6 | 1.6 | 0.00 | 0.00 | 0.00 | 57 | 1025.0 |
| 20260502110739 | 20 | 315 | 1.6 | 1.6 | 0.00 | 0.00 | 0.00 | 58 | 1025.1 |
| 20260502110639 | 20 | 270 | 1.6 | 3.2 | 0.00 | 0.00 | 0.00 | 57 | 1025.2 |
| 20260502110539 | 21 | 270 | 3.2 | 3.2 | 0.00 | 0.00 | 0.00 | 58 | 1025.0 |
| 20260502110439 | 21 | 270 | 1.6 | 1.6 | 0.00 | 0.00 | 0.00 | 60 | 1025.2 |
| 20260502110239 | 20 | 248 | 3.2 | 4.8 | 0.00 | 0.00 | 0.00 | 59 | 1025.4 |
| 20260502110040 | 20 | 0 | 0.0 | 1.6 | 0.00 | 0.00 | 0.00 | 64 | 1025.2 |
| 20260502105940 | 20 | 68 | 0.0 | 1.6 | 0.00 | 0.00 | 0.00 | 65 | 1025.3 |
| 20260502105840 | 20 | 45 | 0.0 | 1.6 | 0.00 | 0.00 | 0.00 | 66 | 1025.3 |
| 20260502105539 | 20 | 0 | 0.0 | 1.6 | 0.00 | 0.00 | 0.00 | 61 | 1025.3 |
| 20260502105339 | 19 | 338 | 1.6 | 1.6 | 0.00 | 0.00 | 0.00 | 60 | 1025.3 |
| 20260502105239 | 19 | 338 | 1.6 | 1.6 | 0.00 | 0.00 | 0.00 | 62 | 1025.3 |
| 20260502105139 | 19 | 338 | 3.2 | 3.2 | 0.00 | 0.00 | 0.00 | 64 | 1025.1 |
| 20260502104839 | 19 | 338 | 1.6 | 1.6 | 0.00 | 0.00 | 0.00 | 64 | 1025.4 |
| 20260502104740 | 19 | 338 | 1.6 | 1.6 | 0.00 | 0.00 | 0.00 | 62 | 1025.7 |
| 20260502104539 | 19 | 0 | 1.6 | 1.6 | 0.00 | 0.00 | 0.00 | 66 | 1025.5 |
| 20260502104440 | 19 | 45 | 1.6 | 1.6 | 0.00 | 0.00 | 0.00 | 64 | 1025.4 |
| 20260502104239 | 19 | 0 | 1.6 | 1.6 | 0.00 | 0.00 | 0.00 | 64 | 1025.4 |
| 20260502103939 | 18 | 338 | 1.6 | 1.6 | 0.00 | 0.00 | 0.00 | 67 | 1025.6 |
| 20260502103740 | 18 | 22 | 1.6 | 1.6 | 0.00 | 0.00 | 0.00 | 73 | 1025.7 |
| 20260502103640 | 18 | 22 | 1.6 | 1.6 | 0.00 | 0.00 | 0.00 | 72 | 1025.6 |
| 20260502103540 | 18 | 22 | 0.0 | 1.6 | 0.00 | 0.00 | 0.00 | 68 | 1025.8 |
| 20260502103439 | 18 | 22 | 1.6 | 1.6 | 0.00 | 0.00 | 0.00 | 69 | 1025.7 |
| 20260502103039 | 18 | 0 | 0.0 | 1.6 | 0.00 | 0.00 | 0.00 | 65 | 1025.8 |
| 20260502102939 | 18 | 0 | 1.6 | 1.6 | 0.00 | 0.00 | 0.00 | 67 | 1025.6 |
| 20260502102840 | 18 | 0 | 0.0 | 1.6 | 0.00 | 0.00 | 0.00 | 75 | 1025.6 |
| 20260502102740 | 18 | 0 | 1.6 | 1.6 | 0.00 | 0.00 | 0.00 | 66 | 1025.7 |
| 20260502102640 | 18 | 0 | 1.6 | 1.6 | 0.00 | 0.00 | 0.00 | 66 | 1025.8 |
| 20260502102239 | 18 | 338 | 1.6 | 1.6 | 0.00 | 0.00 | 0.00 | 69 | 1025.8 |
| 20260502102040 | 18 | 338 | 1.6 | 1.6 | 0.00 | 0.00 | 0.00 | 72 | 1025.9 |
| 20260502101440 | 18 | 315 | 1.6 | 3.2 | 0.00 | 0.00 | 0.00 | 70 | 1026.0 |
| 20260502101339 | 17 | 338 | 3.2 | 3.2 | 0.00 | 0.00 | 0.00 | 74 | 1025.9 |
| 20260502101239 | 18 | 338 | 1.6 | 3.2 | 0.00 | 0.00 | 0.00 | 82 | 1025.9 |
| 20260502101039 | 18 | 315 | 1.6 | 3.2 | 0.00 | 0.00 | 0.00 | 68 | 1025.9 |
| 20260502100939 | 18 | 315 | 1.6 | 1.6 | 0.00 | 0.00 | 0.00 | 67 | 1025.9 |
| 20260502100340 | 17 | 338 | 1.6 | 3.2 | 0.00 | 0.00 | 0.00 | 77 | 1026.1 |
| 20260502091139 | 15 | 45 | 0.0 | 1.6 | 0.00 | 0.00 | 0.00 | 86 | 1026.7 |
| 20260502091039 | 15 | 45 | 1.6 | 1.6 | 0.00 | 0.00 | 0.00 | 85 | 1026.7 |
| 20260502090339 | 15 | 45 | 1.6 | 1.6 | 0.00 | 0.00 | 0.00 | 85 | 1027.0 |
| 20260502090139 | 15 | 68 | 1.6 | 1.6 | 0.00 | 0.00 | 0.00 | 85 | 1026.8 |